OPS-SAT
1 44878U 19092F 22356.78296996 .00013365 00000-0 55093-3 0 9999
2 44878 97.4753 179.6193 0012564 46.0340 314.1931 15.24130092166832
TO-108
1 44881U 19093C 22356.50038222 .00000871 00000-0 11633-3 0 9990
2 44881 97.8796 72.8912 0013679 297.0349 62.9471 14.81985635162628
FloripaSat 1
1 44885U 19093G 22356.79940215 .00003047 00000-0 37229-3 0 9996
2 44885 97.8848 75.0462 0012933 299.9918 60.0021 14.83967034162771
RS-44
1 44909U 19096E 22356.37487492 .00000009 00000-0 -20094-5 0 9993
2 44909 82.5215 105.4387 0216671 240.1854 117.7549 12.79717212139541
BY70-2
1 45857U 20042B 22356.51796060 .00011819 00000-0 14669-2 0 9997
2 45857 97.9429 71.7710 0009551 219.3108 140.7430 14.82742136133293
UPMSat 2
1 46276U 20061E 22356.45696886 .00005618 00000-0 26486-3 0 9993
2 46276 97.3727 62.9581 0000921 148.4435 211.6855 15.19878551127417
AmicalSat
1 46287U 20061R 22356.42361291 .00007229 00000-0 39110-3 0 9999
2 46287 97.4269 61.7013 0002557 23.6018 336.5331 15.14945722126905
SALSAT
1 46495U 20068K 22356.46125008 .00004171 00000-0 29338-3 0 9999
2 46495 97.7508 298.1197 0016400 5.4233 354.7168 15.05532831122463
BY70-3
1 46839U 20079N 22357.01540619 .00063268 00000-0 95457-3 0 9991
2 46839 97.1789 67.7307 0004216 21.2892 81.6871 15.54546327119396
CAPE 3
1 47309U 21002A 22356.77920062 .00014847 00000-0 51430-3 0 9999
2 47309 60.6823 14.0940 0042268 88.1863 272.4067 15.29268005107200
AO-109
1 47311U 21002C 22356.46838479 .00012030 00000-0 42152-3 0 9991
2 47311 60.6844 12.6959 0038934 86.2938 274.2603 15.29191349107175
MiTEE 1
1 47314U 21002F 22356.71949939 .00033586 00000-0 83811-3 0 9992
2 47314 60.6792 357.6202 0035997 79.1669 281.3474 15.39342180107471
ExoCube 2
1 47319U 21002L 22356.39413404 .00011622 00000-0 41373-3 0 9998
2 47319 60.6832 14.5131 0040047 87.7515 272.8160 15.28664367107107
UVSQ-SAT
1 47438U 21006AB 22356.75548716 .00008394 00000-0 41143-3 0 9996
2 47438 97.4139 51.9310 0010816 348.9140 11.1854 15.18331981105821
YUSAT 1
1 47439U 21006AC 22356.11870822 .00011077 00000-0 52729-3 0 9997
2 47439 97.4147 51.6021 0010520 349.8564 10.2457 15.19273416105748
SOMP 2b
1 47445U 21006AJ 22356.14431221 .00008110 00000-0 40367-3 0 9992
2 47445 97.4113 50.8186 0010753 355.9569 4.1576 15.17807342105712
IDEASSat
1 47458U 21006AX 22356.41057635 .00007468 00000-0 37402-3 0 9990
2 47458 97.4202 51.7474 0009905 354.2761 5.8358 15.17624211105749
CubeSX-Sirius-HSE
1 47951U 21022V 22356.39518021 .00007514 00000-0 47289-3 0 9990
2 47951 97.5138 251.9608 0019212 219.8729 269.6708 15.09327223 96327
CubeSX-HSE
1 47952U 21022W 22357.03467225 .00006598 00000-0 41516-3 0 9990
2 47952 97.5141 252.6208 0018749 217.4924 252.0843 15.09386492 96421
KSU-Cubesat
1 47954U 21022Y 22356.60958161 .00006856 00000-0 42661-3 0 9997
2 47954 97.5149 252.4006 0018592 217.9967 141.9952 15.09785804 96093
GRBAlpha
1 47959U 21022AD 22356.68669343 .00006631 00000-0 41682-3 0 9994
2 47959 97.5134 252.3351 0018618 219.5619 192.5774 15.09424065 95198
Orbicraft-Zorkiy
1 47960U 21022AE 22356.98149350 .00007699 00000-0 47913-3 0 9998
2 47960 97.5166 252.8632 0018438 217.4058 273.0343 15.09740844 95931
STECCO
1 47962U 21022AG 22356.76101903 .00011672 00000-0 66802-3 0 9992
2 47962 97.5135 253.9188 0013367 208.5256 239.1698 15.12725199 95301
DO-111
1 47963U 21022AH 22356.50277986 .00027772 00000-0 12248-2 0 9992
2 47963 97.5177 256.3826 0012480 193.7309 166.3589 15.21680843 95455
MO-110
1 47964U 21022AJ 22356.27416998 .00011271 00000-0 63605-3 0 9996
2 47964 97.5157 253.8367 0016133 206.2329 153.8086 15.13204368 95253
FEES
1 48082U 21022AL 22356.27824072 .00016169 00000-0 86703-3 0 9999
2 48082 97.5159 254.0603 0012157 200.6050 159.4693 15.14990001 94975
CSS
1 48274U 21035A 22356.88121064 .00018421 00000-0 22694-3 0 9996
2 48274 41.4749 150.2038 0004161 195.4134 289.8653 15.59768989 94263
TUBIN
1 48900U 21059X 22356.64242663 .00006503 00000-0 34524-3 0 9994
2 48900 97.5757 124.9240 0010089 166.0301 203.9358 15.15631218 82407
IT-SPINS
1 49017U 21013G 22355.06084738 .00014490 00000-0 48827-3 0 9991
2 49017 51.5951 224.1043 0007206 43.5568 316.5980 15.30947830 82328
LEDSAT
1 49069U 21073D 22356.45567688 .00005357 00000-0 32733-3 0 9999
2 49069 97.5070 65.6127 0026393 13.3449 346.8472 15.10399990 74193
CUTE
1 49263U 21088D 22356.43214684 .00004954 00000-0 35315-3 0 9995
2 49263 97.5695 60.5780 0020527 141.8059 218.4626 15.04855918 67678
TeikyoSat 4
1 49396U 21102B 22356.43033471 .00002051 00000-0 16363-3 0 9990
2 49396 97.5422 48.6941 0016759 347.2596 12.8203 15.01285577 61248
Z-Sat
1 49399U 21102E 22356.58794303 .00001960 00000-0 14832-3 0 9994
2 49399 97.5111 50.0285 0021921 313.3302 46.6096 15.03287494 61348
KOSEN 1
1 49402U 21102H 22356.70706198 .00004159 00000-0 29943-3 0 9990
2 49402 97.5056 50.4129 0020748 302.1745 57.7469 15.04568749 61405
HO-113
1 50466U 21131B 22356.52713854 .00000328 00000-0 12161-3 0 9999
2 50466 98.5677 73.5646 0003583 315.2667 44.8230 14.38600332 51956
Tevel-3
1 50988U 22002E 22356.44284003 .00012393 00000-0 61964-3 0 9996
2 50988 97.4604 60.4009 0009993 126.6606 289.2638 15.17537745 51894
Tevel-8
1 50989U 22002F 22356.79159052 .00012371 00000-0 61936-3 0 9995
2 50989 97.4626 60.7832 0010312 125.5051 330.2003 15.17489627 51949
Tevel-5
1 50998U 22002Q 22356.73750603 .00012647 00000-0 62177-3 0 9992
2 50998 97.4611 60.9068 0011760 122.3910 333.4273 15.18106212 51955
Tevel-6
1 50999U 22002R 22356.45761559 .00012619 00000-0 62046-3 0 9998
2 50999 97.4601 60.6271 0011665 123.1450 249.3736 15.18105457 51915
Tevel-1
1 51013U 22002AF 22356.44863750 .00012367 00000-0 61892-3 0 9999
2 51013 97.4599 60.3707 0009878 126.7378 290.4287 15.17507367 51891
Grizu-263a
1 51025U 22002AT 22356.17312141 .00022952 00000-0 97195-3 0 9991
2 51025 97.4778 62.2400 0012064 125.2723 234.9644 15.23107716 51940
NO-116
1 51031U 22002AZ 22355.68714859 .00017750 00000-0 81697-3 0 9995
2 51031 97.4733 61.0020 0012810 128.9405 231.2974 15.20305560 51837
IRIS-A
1 51044U 22002BN 22356.40459619 .00006920 00000-0 37023-3 0 9991
2 51044 97.4614 59.8611 0010000 128.8699 231.3427 15.15323556 51858
Tevel-7
1 51062U 22002CG 22356.45694537 .00012307 00000-0 61632-3 0 9995
2 51062 97.4619 60.4326 0010306 125.9657 291.5362 15.17480900 51894
Tevel-4
1 51063U 22002CH 22356.45927409 .00012210 00000-0 61186-3 0 9990
2 51063 97.4621 60.4284 0010257 125.7887 293.7832 15.17460593 51891
Tevel-2
1 51069U 22002CP 22356.66000734 .00012514 00000-0 62564-3 0 9990
2 51069 97.4595 60.5931 0009929 125.3023 26.4455 15.17539820 51925
DELFI-PQ
1 51074U 22002CU 22356.45747064 .00016469 00000-0 71648-3 0 9993
2 51074 97.4865 63.1499 0012843 153.1833 207.0069 15.22253435 52005
SO-115
1 51080U 22002DA 22356.13573547 .00012880 00000-0 59823-3 0 9992
2 51080 97.4881 62.4143 0012982 155.8368 204.3478 15.20062827 51929
SO-114
1 51081U 22002DB 22356.13533572 .00014353 00000-0 66545-3 0 9993
2 51081 97.4870 62.3775 0013314 155.4711 204.7160 15.20095570 51929
OreSat0
1 52017U 22026K 22356.90385926 .00010849 00000-0 53286-3 0 9996
2 52017 97.5075 354.7264 0025325 344.7090 15.3375 15.17957472 42744
